When you browse on this site, cookies collect data to enhance your experience and personalize the content and advertising you see.
Visit our Privacy Policy to learn more. By continuing to use the site, you agree to this use of cookies and data.
  • în România
  • Lista ţărilor
  • Pe 7 zile
  • Temperatura apei
  • Meteo pe hartă
  • Widget-uri
  • user-avatar
    Intrare

    Meteo pe oră la São Paulo

    Astăzi, 22 Septembrie, Duminică

    Timp Temperatura Precipitaţii Vânt Presiune Umiditate
    00:00 +18°C° 0 mm 3 m/s 701 mmHg 85%
    01:00 +18°C° 0 mm 3 m/s 701 mmHg 87%
    02:00 +17°C° 0 mm 3 m/s 701 mmHg 88%
    03:00 +17°C° 0 mm 3 m/s 700 mmHg 90%
    04:00 +17°C° 0 mm 3 m/s 701 mmHg 89%
    05:00 +17°C° 0 mm 3 m/s 701 mmHg 88%
    06:00 +17°C° 0 mm 3 m/s 701 mmHg 87%
    07:00 +18°C° 0 mm 4 m/s 702 mmHg 85%
    08:00 +18°C° 0 mm 4 m/s 702 mmHg 83%
    09:00 +19°C° 0 mm 4 m/s 703 mmHg 82%
    10:00 +19°C° 0 mm 4 m/s 703 mmHg 81%
    11:00 +19°C° 0 mm 4 m/s 703 mmHg 81%
    12:00 +19°C° 0 mm 4 m/s 703 mmHg 80%
    13:00 +18°C° 0.1 mm 4 m/s 703 mmHg 81%
    14:00 +17°C° 0.1 mm 5 m/s 702 mmHg 82%
    15:00 +17°C° 0.1 mm 5 m/s 702 mmHg 84%
    16:00 +17°C° 0.1 mm 5 m/s 703 mmHg 85%
    17:00 +16°C° 0.1 mm 5 m/s 703 mmHg 87%
    18:00 +16°C° 0.1 mm 5 m/s 703 mmHg 88%
    19:00 +15°C° 0.1 mm 6 m/s 704 mmHg 89%
    20:00 +15°C° 0.1 mm 6 m/s 704 mmHg 89%
    21:00 +14°C° 0.1 mm 6 m/s 704 mmHg 90%
    22:00 +14°C° 0 mm 6 m/s 704 mmHg 88%
    23:00 +14°C° 0 mm 6 m/s 704 mmHg 87%

    Mâine, 23 Septembrie, Luni

    Timp Temperatura Precipitaţii Vânt Presiune Umiditate
    00:00 +14°C° 0 mm 6 m/s 704 mmHg 85%
    01:00 +13°C° 0 mm 6 m/s 704 mmHg 85%
    02:00 +13°C° 0 mm 6 m/s 704 mmHg 85%
    03:00 +13°C° 0 mm 5 m/s 704 mmHg 85%
    04:00 +13°C° 0 mm 5 m/s 704 mmHg 85%
    05:00 +13°C° 0 mm 5 m/s 704 mmHg 85%
    06:00 +13°C° 0 mm 5 m/s 704 mmHg 85%
    07:00 +13°C° 0 mm 5 m/s 705 mmHg 81%
    08:00 +13°C° 0 mm 5 m/s 705 mmHg 78%
    09:00 +14°C° 0 mm 5 m/s 706 mmHg 75%
    10:00 +14°C° 0 mm 5 m/s 705 mmHg 74%
    11:00 +14°C° 0 mm 5 m/s 705 mmHg 72%
    12:00 +15°C° 0 mm 5 m/s 705 mmHg 71%
    13:00 +15°C° 0 mm 5 m/s 705 mmHg 71%
    14:00 +15°C° 0 mm 5 m/s 704 mmHg 70%
    15:00 +15°C° 0 mm 4 m/s 704 mmHg 70%
    16:00 +15°C° 0 mm 4 m/s 704 mmHg 71%
    17:00 +14°C° 0 mm 4 m/s 704 mmHg 73%
    18:00 +14°C° 0 mm 4 m/s 704 mmHg 75%
    19:00 +14°C° 0 mm 4 m/s 704 mmHg 75%
    20:00 +14°C° 0 mm 4 m/s 704 mmHg 75%
    21:00 +13°C° 0 mm 4 m/s 704 mmHg 75%
    22:00 +13°C° 0 mm 3 m/s 704 mmHg 75%
    23:00 +13°C° 0 mm 3 m/s 704 mmHg 75%

    Poimâine, 24 Septembrie, Marţi

    Timp Temperatura Precipitaţii Vânt Presiune Umiditate
    00:00 +13°C° 0 mm 3 m/s 704 mmHg 75%
    01:00 +12°C° 0 mm 3 m/s 703 mmHg 74%
    02:00 +12°C° 0 mm 3 m/s 703 mmHg 74%
    03:00 +12°C° 0 mm 3 m/s 702 mmHg 74%
    04:00 +12°C° 0 mm 3 m/s 702 mmHg 73%
    05:00 +12°C° 0 mm 3 m/s 702 mmHg 73%
    06:00 +12°C° 0 mm 3 m/s 702 mmHg 73%
    07:00 +13°C° 0 mm 3 m/s 703 mmHg 69%
    08:00 +14°C° 0 mm 3 m/s 703 mmHg 65%
    09:00 +17°C° 0 mm 2 m/s 703 mmHg 61%
    10:00 +18°C° 0 mm 2 m/s 703 mmHg 59%
    11:00 +19°C° 0 mm 2 m/s 703 mmHg 56%
    12:00 +20°C° 0 mm 2 m/s 703 mmHg 54%
    13:00 +20°C° 0 mm 2 m/s 702 mmHg 57%
    14:00 +20°C° 0 mm 3 m/s 702 mmHg 59%
    15:00 +20°C° 0 mm 3 m/s 701 mmHg 62%
    16:00 +19°C° 0.1 mm 3 m/s 701 mmHg 69%
    17:00 +18°C° 0.1 mm 3 m/s 701 mmHg 76%
    18:00 +16°C° 0.1 mm 3 m/s 701 mmHg 82%
    19:00 +16°C° 0.2 mm 3 m/s 701 mmHg 84%
    20:00 +16°C° 0.2 mm 3 m/s 701 mmHg 85%
    21:00 +16°C° 0.2 mm 3 m/s 702 mmHg 87%
    22:00 +16°C° 0.2 mm 3 m/s 702 mmHg 87%
    23:00 +16°C° 0.2 mm 3 m/s 701 mmHg 87%

    25 Septembrie, Miercuri

    Timp Temperatura Precipitaţii Vânt Presiune Umiditate
    00:00 +16°C° 0.2 mm 3 m/s 701 mmHg 87%
    01:00 +15°C° 0.7 mm 2 m/s 701 mmHg 88%
    02:00 +15°C° 0.7 mm 2 m/s 700 mmHg 89%
    03:00 +15°C° 0.7 mm 2 m/s 700 mmHg 90%
    04:00 +15°C° 2.2 mm 2 m/s 700 mmHg 90%
    05:00 +15°C° 2.2 mm 2 m/s 700 mmHg 90%
    06:00 +15°C° 2.2 mm 2 m/s 700 mmHg 90%
    07:00 +16°C° 0.6 mm 2 m/s 700 mmHg 90%
    08:00 +16°C° 0.6 mm 2 m/s 700 mmHg 89%
    09:00 +16°C° 0.6 mm 2 m/s 700 mmHg 89%
    10:00 +16°C° 2.3 mm 2 m/s 700 mmHg 90%
    11:00 +16°C° 2.3 mm 2 m/s 700 mmHg 91%
    12:00 +16°C° 2.3 mm 2 m/s 700 mmHg 91%
    13:00 +16°C° 4 mm 2 m/s 699 mmHg 92%
    14:00 +16°C° 4 mm 1 m/s 699 mmHg 92%
    15:00 +16°C° 4 mm 1 m/s 699 mmHg 93%
    16:00 +16°C° 2.6 mm 1 m/s 699 mmHg 93%
    17:00 +16°C° 2.6 mm 1 m/s 699 mmHg 93%
    18:00 +16°C° 2.6 mm 2 m/s 699 mmHg 93%
    19:00 +16°C° 1.9 mm 1 m/s 699 mmHg 93%
    20:00 +16°C° 1.9 mm 1 m/s 699 mmHg 93%
    21:00 +16°C° 1.9 mm 1 m/s 699 mmHg 93%
    22:00 +16°C° 0.3 mm 1 m/s 699 mmHg 93%
    23:00 +16°C° 0.3 mm 1 m/s 699 mmHg 92%

    26 Septembrie, Joi

    Timp Temperatura Precipitaţii Vânt Presiune Umiditate
    00:00 +16°C° 0.3 mm 1 m/s 699 mmHg 92%
    01:00 +16°C° 0.3 mm 1 m/s 698 mmHg 92%
    02:00 +16°C° 0.3 mm 1 m/s 698 mmHg 91%
    03:00 +16°C° 0.3 mm 1 m/s 698 mmHg 91%
    04:00 +16°C° 0.2 mm 1 m/s 698 mmHg 91%
    05:00 +16°C° 0.2 mm 2 m/s 698 mmHg 91%
    06:00 +16°C° 0.2 mm 2 m/s 698 mmHg 91%
    07:00 +16°C° 0.3 mm 2 m/s 698 mmHg 91%
    08:00 +16°C° 0.3 mm 3 m/s 699 mmHg 90%
    09:00 +17°C° 0.3 mm 3 m/s 699 mmHg 89%
    10:00 +18°C° 0.1 mm 4 m/s 699 mmHg 81%
    11:00 +19°C° 0.1 mm 4 m/s 700 mmHg 74%
    12:00 +21°C° 0.1 mm 5 m/s 700 mmHg 66%
    13:00 +20°C° 0.1 mm 5 m/s 700 mmHg 68%
    14:00 +20°C° 0.1 mm 5 m/s 699 mmHg 70%
    15:00 +20°C° 0.1 mm 5 m/s 699 mmHg 72%
    16:00 +19°C° 0.3 mm 5 m/s 699 mmHg 76%
    17:00 +17°C° 0.3 mm 5 m/s 699 mmHg 79%
    18:00 +16°C° 0.3 mm 5 m/s 699 mmHg 83%
    19:00 +16°C° 0 mm 5 m/s 700 mmHg 84%
    20:00 +15°C° 0 mm 4 m/s 700 mmHg 84%
    21:00 +15°C° 0 mm 4 m/s 701 mmHg 85%
    22:00 +16°C° 0 mm 3 m/s 701 mmHg 85%
    23:00 +16°C° 0 mm 3 m/s 701 mmHg 86%

    27 Septembrie, Vineri

    Timp Temperatura Precipitaţii Vânt Presiune Umiditate
    00:00 +14°C° 0 mm 3 m/s 700 mmHg 86%
    01:00 +14°C° 0 mm 3 m/s 700 mmHg 86%
    02:00 +14°C° 0 mm 3 m/s 700 mmHg 86%
    03:00 +14°C° 0 mm 3 m/s 699 mmHg 86%
    04:00 +14°C° 0 mm 3 m/s 700 mmHg 86%
    05:00 +14°C° 0 mm 3 m/s 700 mmHg 87%
    06:00 +14°C° 0 mm 3 m/s 700 mmHg 87%
    07:00 +16°C° 0 mm 3 m/s 701 mmHg 83%
    08:00 +17°C° 0 mm 3 m/s 701 mmHg 79%
    09:00 +17°C° 0 mm 4 m/s 702 mmHg 74%
    10:00 +19°C° 0 mm 4 m/s 702 mmHg 68%
    11:00 +20°C° 0 mm 4 m/s 702 mmHg 61%
    12:00 +22°C° 0 mm 4 m/s 702 mmHg 55%
    13:00 +22°C° 0 mm 4 m/s 702 mmHg 56%
    14:00 +22°C° 0 mm 4 m/s 701 mmHg 57%
    15:00 +22°C° 0 mm 4 m/s 701 mmHg 58%
    16:00 +20°C° 0 mm 4 m/s 701 mmHg 64%
    17:00 +19°C° 0 mm 4 m/s 701 mmHg 70%
    18:00 +18°C° 0 mm 4 m/s 701 mmHg 77%
    19:00 +17°C° 0 mm 4 m/s 701 mmHg 79%
    20:00 +17°C° 0 mm 4 m/s 701 mmHg 81%
    21:00 +17°C° 0 mm 4 m/s 701 mmHg 83%
    22:00 +15°C° 0 mm 4 m/s 701 mmHg 83%
    23:00 +15°C° 0 mm 4 m/s 701 mmHg 83%
    Arată mai mult